sat.trackr.live / text

‹ back to catalog

STARLINK-32442

NORAD 61729 · 2024-196Y

PAYLOAD ACTIVE UNKNOWN

§ Identity

Operator
Country
US
Launch date
2024-10-30
Launch site
AFETR
Launch vehicle
Mass (kg)
RCS (m²)

Purposes: comms

External: N2YO · Heavens-Above · Gunter

§ Orbital elements

Epoch: 2026-09-21T17:46:14.716704Z

Period
93.85 min
Inclination
53.1603°
Eccentricity
0.0001325
Mean motion
15.34391352 rev/d
Perigee alt
461.8 km
Apogee alt
463.6 km
Semi-major
6,840.9 km
B*
1.9115e-5
RAAN
267.8087°
Arg perigee
85.7573°
Mean anomaly
274.3581°
Rev number
10,721

§ Raw data

STARLINK-324421 61729U 24196Y   26264.74044811  .00000269  00000+0  19115-4 0  99932 61729  53.1603 267.8087 0001325  85.7573 274.3581 15.34391352107216

JSON: /api/v1/satellites/61729 · /tle

For live sub-satellite position, see the globe view (requires WebGL).

§ Visibility from observer

Set your observer location to see the next 7 days of passes ≥ 10°. The values pass through the URL so the page stays shareable.

No JS? Fill the form by hand. The geolocation button needs JavaScript.